TimeEDT,TemperatureF,Dew PointF,Humidity,Sea Level PressureIn,VisibilityMPH,Wind Direction,Wind SpeedMPH,Gust SpeedMPH,PrecipitationIn,Events,Conditions,WindDirDegrees,DateUTC
12:53 AM,66.0,54.0,65,30.14,10.0,SSE,3.5,-,N/A,,Clear,150,2013-03-17 04:53:00
1:53 AM,64.9,54.0,68,30.12,10.0,SSE,4.6,-,N/A,,Clear,150,2013-03-17 05:53:00
2:53 AM,66.0,55.0,68,30.11,10.0,SSE,3.5,-,N/A,,Clear,160,2013-03-17 06:53:00
3:53 AM,66.0,55.0,68,30.10,10.0,Calm,Calm,-,N/A,,Clear,0,2013-03-17 07:53:00
4:53 AM,63.0,55.0,75,30.09,10.0,Calm,Calm,-,N/A,,Clear,0,2013-03-17 08:53:00
5:53 AM,62.1,54.0,75,30.10,10.0,Calm,Calm,-,N/A,,Partly Cloudy,0,2013-03-17 09:53:00
6:53 AM,60.1,55.0,83,30.11,10.0,Calm,Calm,-,N/A,,Scattered Clouds,0,2013-03-17 10:53:00
7:53 AM,60.1,55.0,83,30.13,10.0,Calm,Calm,-,N/A,,Scattered Clouds,0,2013-03-17 11:53:00
8:53 AM,64.9,57.0,75,30.14,10.0,Calm,Calm,-,N/A,,Mostly Cloudy,0,2013-03-17 12:53:00
9:53 AM,72.0,57.9,61,30.15,10.0,ESE,5.8,-,N/A,,Mostly Cloudy,120,2013-03-17 13:53:00
10:53 AM,73.9,57.9,57,30.15,10.0,SE,10.4,-,N/A,,Mostly Cloudy,130,2013-03-17 14:53:00
11:53 AM,75.0,55.9,51,30.15,10.0,SSE,11.5,-,N/A,,Mostly Cloudy,150,2013-03-17 15:53:00
12:53 PM,75.0,57.0,53,30.14,10.0,ESE,16.1,-,N/A,,Mostly Cloudy,120,2013-03-17 16:53:00
1:53 PM,75.0,57.0,53,30.13,10.0,SE,12.7,21.9,N/A,,Mostly Cloudy,130,2013-03-17 17:53:00
2:53 PM,75.9,55.9,50,30.09,10.0,SE,9.2,17.3,N/A,,Mostly Cloudy,140,2013-03-17 18:53:00
3:53 PM,75.9,55.9,50,30.07,10.0,SSE,8.1,17.3,N/A,,Mostly Cloudy,150,2013-03-17 19:53:00
4:53 PM,75.0,57.0,53,30.06,10.0,SSE,9.2,-,N/A,,Mostly Cloudy,160,2013-03-17 20:53:00
5:53 PM,73.9,57.0,55,30.07,10.0,SSE,9.2,17.3,N/A,,Mostly Cloudy,150,2013-03-17 21:53:00
6:53 PM,72.0,57.0,59,30.06,10.0,SE,9.2,-,N/A,,Mostly Cloudy,130,2013-03-17 22:53:00
7:53 PM,72.0,57.0,59,30.04,10.0,SE,8.1,-,N/A,,Mostly Cloudy,130,2013-03-17 23:53:00
8:53 PM,71.1,57.9,63,30.06,10.0,ESE,4.6,-,N/A,,Mostly Cloudy,120,2013-03-18 00:53:00
9:53 PM,70.0,60.1,71,30.09,10.0,SSE,3.5,-,N/A,,Scattered Clouds,150,2013-03-18 01:53:00
10:53 PM,69.1,60.1,73,30.09,10.0,East,3.5,-,N/A,,Scattered Clouds,100,2013-03-18 02:53:00
11:53 PM,70.0,61.0,73,30.10,10.0,East,4.6,-,N/A,,Scattered Clouds,100,2013-03-18 03:53:00